Location: Asarope
(8.2500°N, 4.4833°E)
Time: 14:10:04
(UTC+00:00)

Iridium 4 Rocket - Pass Details

Date: 07 June 2020
Orbit: 585 x 904 km, 86.9° (Epoch: 07 July)

Event Time Altitude Azimuth Distance (km) Brightness Sun altitude
Exits shadow 03:33:02 50° 152° (SSE) 867 3.7 -25.3°
Maximum altitude 03:34:09 70° 89° (E) 736 3.4 -25.1°
Drops below altitude 10° 03:39:06 10° 5° (N) 2,248 6.3 -24.0°
Sets 03:41:32 0° 3° (N) 3,225 7.2 -23.5°
